Time,TemperatureF,DewpointF,PressureIn,WindDirection,WindDirectionDegrees,WindSpeedMPH,WindSpeedGustMPH,Humidity,HourlyPrecipIn,Conditions,Clouds,dailyrainin,SoftwareType,DateUTC
2013-06-26 00:00:00,77.2,70.6,29.71,SSE,155,0.0,1.0,80,0.00,,OVC110,0.00,VWS V14.01,2013-06-26 05:00:00,
2013-06-26 00:04:00,77.1,70.8,29.71,SSE,155,0.0,0.0,81,0.00,,CLR,0.00,VWS V14.01,2013-06-26 05:04:00,
2013-06-26 00:09:00,77.1,70.8,29.72,SSE,155,0.0,0.0,81,0.00,,CLR,0.00,VWS V14.01,2013-06-26 05:09:00,
2013-06-26 00:14:00,77.2,70.6,29.71,SSE,155,0.0,0.0,80,0.00,,CLR,0.00,VWS V14.01,2013-06-26 05:14:00,
2013-06-26 00:19:00,77.2,70.6,29.71,SSE,155,0.0,0.0,80,0.00,,CLR,0.00,VWS V14.01,2013-06-26 05:19:00,
2013-06-26 00:24:00,77.2,70.6,29.71,SSE,155,0.0,0.0,80,0.00,,CLR,0.00,VWS V14.01,2013-06-26 05:24:00,
2013-06-26 00:29:00,77.2,70.9,29.71,SSE,155,0.0,0.0,81,0.00,,CLR,0.00,VWS V14.01,2013-06-26 05:29:00,
2013-06-26 00:30:00,77.2,70.9,29.71,SSE,155,0.0,0.0,81,0.00,,OVC110,0.00,VWS V14.01,2013-06-26 05:30:00,
2013-06-26 00:34:00,77.2,70.9,29.71,SSE,155,0.0,0.0,81,0.00,,CLR,0.00,VWS V14.01,2013-06-26 05:34:00,
2013-06-26 00:39:00,77.1,70.8,29.70,WSW,250,0.0,0.0,81,0.00,,CLR,0.00,VWS V14.01,2013-06-26 05:39:00,
2013-06-26 00:45:00,77.1,70.8,29.70,SSW,192,0.0,0.0,81,0.00,,CLR,0.00,VWS V14.01,2013-06-26 05:45:00,
2013-06-26 00:50:00,76.9,71.0,29.70,SSW,192,0.0,0.0,82,0.00,,CLR,0.00,VWS V14.01,2013-06-26 05:50:00,
2013-06-26 00:55:00,76.8,70.9,29.70,South,169,0.0,1.0,82,0.00,,CLR,0.00,VWS V14.01,2013-06-26 05:55:00,
2013-06-26 01:00:00,76.6,70.7,29.70,SSW,194,0.0,0.0,82,0.00,,CLR,0.00,VWS V14.01,2013-06-26 06:00:00,
2013-06-26 01:05:00,76.6,71.1,29.70,SSW,194,0.0,0.0,83,0.00,,CLR,0.00,VWS V14.01,2013-06-26 06:05:00,
2013-06-26 01:10:00,76.6,71.1,29.70,SSW,194,0.0,0.0,83,0.00,,CLR,0.00,VWS V14.01,2013-06-26 06:10:00,
2013-06-26 01:15:00,76.5,71.0,29.70,SSW,194,0.0,0.0,83,0.00,,CLR,0.00,VWS V14.01,2013-06-26 06:15:00,
2013-06-26 01:20:00,76.4,70.9,29.70,SSW,194,0.0,0.0,83,0.00,,CLR,0.00,VWS V14.01,2013-06-26 06:20:00,
2013-06-26 01:25:00,76.3,70.8,29.70,SSW,194,0.0,0.0,83,0.00,,CLR,0.00,VWS V14.01,2013-06-26 06:25:00,
2013-06-26 01:30:00,76.2,71.0,29.70,SSW,194,0.0,0.0,84,0.00,,CLR,0.00,VWS V14.01,2013-06-26 06:30:00,
2013-06-26 01:35:00,76.0,70.8,29.69,SSE,157,0.0,0.0,84,0.00,,CLR,0.00,VWS V14.01,2013-06-26 06:35:00,
2013-06-26 01:41:00,75.9,70.7,29.69,SSE,157,0.0,0.0,84,0.00,,CLR,0.00,VWS V14.01,2013-06-26 06:41:00,
2013-06-26 01:46:00,75.8,71.0,29.69,SSE,157,0.0,0.0,85,0.00,,CLR,0.00,VWS V14.01,2013-06-26 06:46:00,
2013-06-26 01:51:00,75.7,70.9,29.69,SSE,157,0.0,0.0,85,0.00,,CLR,0.00,VWS V14.01,2013-06-26 06:51:00,
2013-06-26 01:56:00,75.5,71.0,29.68,SSE,157,0.0,0.0,86,0.00,,CLR,0.00,VWS V14.01,2013-06-26 06:56:00,
2013-06-26 02:00:00,75.5,71.0,29.68,SSE,157,0.0,0.0,86,0.00,,OVC110,0.00,VWS V14.01,2013-06-26 07:00:00,
2013-06-26 02:01:00,75.4,70.9,29.68,SE,138,0.0,0.0,86,0.00,,CLR,0.00,VWS V14.01,2013-06-26 07:01:00,
2013-06-26 02:06:00,75.3,70.8,29.68,SE,139,0.0,0.0,86,0.00,,CLR,0.00,VWS V14.01,2013-06-26 07:06:00,
2013-06-26 02:11:00,75.3,70.8,29.68,SSW,204,0.0,2.0,86,0.00,,CLR,0.00,VWS V14.01,2013-06-26 07:11:00,
2013-06-26 02:16:00,75.3,70.8,29.67,SSW,204,0.0,2.0,86,0.00,,CLR,0.00,VWS V14.01,2013-06-26 07:16:00,
2013-06-26 02:21:00,75.3,70.8,29.67,South,175,0.0,2.0,86,0.00,,CLR,0.00,VWS V14.01,2013-06-26 07:21:00,
2013-06-26 02:26:00,75.3,70.8,29.67,SW,219,0.0,2.0,86,0.00,,CLR,0.00,VWS V14.01,2013-06-26 07:26:00,
2013-06-26 02:30:00,75.3,70.8,29.67,SSE,159,0.0,2.0,86,0.00,,OVC110,0.00,VWS V14.01,2013-06-26 07:30:00,
2013-06-26 02:31:00,75.3,70.8,29.67,SSE,155,0.0,2.0,86,0.00,,CLR,0.00,VWS V14.01,2013-06-26 07:31:00,
2013-06-26 02:37:00,75.4,70.9,29.66,SSE,155,0.0,2.0,86,0.00,,CLR,0.00,VWS V14.01,2013-06-26 07:37:00,
2013-06-26 02:42:00,75.4,70.9,29.66,SSE,153,0.0,2.0,86,0.00,,CLR,0.00,VWS V14.01,2013-06-26 07:42:00,
2013-06-26 02:47:00,75.4,70.9,29.66,SW,223,0.0,2.0,86,0.00,,CLR,0.00,VWS V14.01,2013-06-26 07:47:00,
2013-06-26 02:52:00,75.3,70.8,29.66,South,186,0.0,2.0,86,0.00,,CLR,0.00,VWS V14.01,2013-06-26 07:52:00,
2013-06-26 02:57:00,75.4,70.9,29.67,SW,221,0.0,2.0,86,0.00,,CLR,0.00,VWS V14.01,2013-06-26 07:57:00,
2013-06-26 03:00:00,75.3,70.8,29.66,SW,221,0.0,2.0,86,0.00,,OVC110,0.00,VWS V14.01,2013-06-26 08:00:00,
2013-06-26 03:02:00,75.4,70.9,29.66,SW,221,0.0,1.0,86,0.00,,CLR,0.00,VWS V14.01,2013-06-26 08:02:00,
2013-06-26 03:07:00,75.4,70.9,29.67,South,172,0.0,1.0,86,0.00,,CLR,0.00,VWS V14.01,2013-06-26 08:07:00,
2013-06-26 03:12:00,75.4,70.9,29.66,South,172,0.0,1.0,86,0.00,,CLR,0.00,VWS V14.01,2013-06-26 08:12:00,
2013-06-26 03:17:00,75.5,71.0,29.66,SSW,195,1.0,5.0,86,0.00,,CLR,0.00,VWS V14.01,2013-06-26 08:17:00,
2013-06-26 03:22:00,75.5,71.0,29.66,SW,224,0.0,5.0,86,0.00,,CLR,0.00,VWS V14.01,2013-06-26 08:22:00,
2013-06-26 03:27:00,75.5,71.0,29.66,SW,223,0.0,5.0,86,0.00,,CLR,0.00,VWS V14.01,2013-06-26 08:27:00,
2013-06-26 03:30:00,75.5,71.0,29.66,SW,222,0.0,5.0,86,0.00,,OVC110,0.00,VWS V14.01,2013-06-26 08:30:00,
2013-06-26 03:33:00,75.5,71.4,29.66,ESE,122,0.0,1.0,87,0.00,,CLR,0.00,VWS V14.01,2013-06-26 08:33:00,
2013-06-26 03:38:00,75.5,71.4,29.66,ESE,123,0.0,1.0,87,0.00,,CLR,0.00,VWS V14.01,2013-06-26 08:38:00,
2013-06-26 03:43:00,75.5,71.0,29.66,South,175,0.0,1.0,86,0.00,,CLR,0.00,VWS V14.01,2013-06-26 08:43:00,
2013-06-26 03:48:00,75.4,70.9,29.66,South,175,0.0,1.0,86,0.00,,CLR,0.00,VWS V14.01,2013-06-26 08:48:00,
2013-06-26 03:53:00,75.4,71.3,29.66,South,175,0.0,1.0,87,0.00,,CLR,0.00,VWS V14.01,2013-06-26 08:53:00,
2013-06-26 03:58:00,75.3,71.2,29.66,South,175,0.0,1.0,87,0.00,,CLR,0.00,VWS V14.01,2013-06-26 08:58:00,
2013-06-26 04:00:00,75.3,71.2,29.66,South,175,0.0,1.0,87,0.00,,OVC110,0.00,VWS V14.01,2013-06-26 09:00:00,
2013-06-26 04:03:00,75.3,71.2,29.66,South,175,0.0,1.0,87,0.00,,CLR,0.00,VWS V14.01,2013-06-26 09:03:00,
2013-06-26 04:04:00,75.3,71.2,29.66,South,175,0.0,1.0,87,0.00,,CLR,0.00,VWS V14.01,2013-06-26 09:04:00,
2013-06-26 04:09:00,75.2,71.1,29.66,South,179,0.0,1.0,87,0.00,,CLR,0.00,VWS V14.01,2013-06-26 09:09:00,
2013-06-26 04:14:00,75.1,71.0,29.66,SSW,197,0.0,2.0,87,0.00,,CLR,0.00,VWS V14.01,2013-06-26 09:14:00,
2013-06-26 04:19:00,75.1,71.0,29.67,South,184,0.0,2.0,87,0.00,,CLR,0.00,VWS V14.01,2013-06-26 09:19:00,
2013-06-26 04:24:00,75.0,70.9,29.67,South,184,0.0,2.0,87,0.00,,CLR,0.00,VWS V14.01,2013-06-26 09:24:00,
2013-06-26 04:29:00,74.9,70.8,29.67,South,184,0.0,2.0,87,0.00,,CLR,0.00,VWS V14.01,2013-06-26 09:29:00,
2013-06-26 04:30:00,74.9,70.8,29.67,South,184,0.0,2.0,87,0.00,,OVC110,0.00,VWS V14.01,2013-06-26 09:30:00,
2013-06-26 04:34:00,74.9,71.1,29.67,South,184,0.0,1.0,88,0.00,,CLR,0.00,VWS V14.01,2013-06-26 09:34:00,
2013-06-26 04:39:00,74.8,71.0,29.67,South,184,0.0,1.0,88,0.00,,CLR,0.00,VWS V14.01,2013-06-26 09:39:00,
2013-06-26 04:45:00,74.8,71.0,29.67,South,184,0.0,1.0,88,0.00,,CLR,0.00,VWS V14.01,2013-06-26 09:45:00,
2013-06-26 04:50:00,74.8,71.0,29.67,SW,236,0.0,1.0,88,0.00,,CLR,0.00,VWS V14.01,2013-06-26 09:50:00,
2013-06-26 04:55:00,74.7,70.9,29.67,South,171,0.0,2.0,88,0.00,,CLR,0.00,VWS V14.01,2013-06-26 09:55:00,
2013-06-26 05:00:00,74.7,70.9,29.67,South,171,0.0,0.0,88,0.00,,CLR,0.00,VWS V14.01,2013-06-26 10:00:00,
2013-06-26 05:05:00,74.7,70.6,29.66,South,171,0.0,0.0,87,0.00,,CLR,0.00,VWS V14.01,2013-06-26 10:05:00,
2013-06-26 05:10:00,74.6,70.8,29.66,South,171,0.0,1.0,88,0.00,,CLR,0.00,VWS V14.01,2013-06-26 10:10:00,
2013-06-26 05:15:00,74.6,70.8,29.66,South,171,0.0,1.0,88,0.00,,CLR,0.00,VWS V14.01,2013-06-26 10:15:00,
2013-06-26 05:20:00,74.6,70.8,29.67,South,171,0.0,1.0,88,0.00,,CLR,0.00,VWS V14.01,2013-06-26 10:20:00,
2013-06-26 05:25:00,74.6,70.8,29.66,South,173,0.0,1.0,88,0.00,,CLR,0.00,VWS V14.01,2013-06-26 10:25:00,
2013-06-26 05:30:00,74.5,70.7,29.67,SSW,193,0.0,0.0,88,0.00,,CLR,0.00,VWS V14.01,2013-06-26 10:30:00,
2013-06-26 05:35:00,74.4,70.6,29.67,SSW,200,0.0,1.0,88,0.00,,CLR,0.00,VWS V14.01,2013-06-26 10:35:00,
2013-06-26 05:41:00,74.4,70.6,29.67,SE,128,0.0,1.0,88,0.00,,CLR,0.00,VWS V14.01,2013-06-26 10:41:00,
2013-06-26 05:46:00,74.4,70.6,29.67,SSE,157,0.0,1.0,88,0.00,,CLR,0.00,VWS V14.01,2013-06-26 10:46:00,
2013-06-26 05:51:00,74.3,70.5,29.67,SSE,157,0.0,1.0,88,0.00,,CLR,0.00,VWS V14.01,2013-06-26 10:51:00,
2013-06-26 05:56:00,74.3,70.5,29.67,SE,146,0.0,1.0,88,0.00,,CLR,0.00,VWS V14.01,2013-06-26 10:56:00,
2013-06-26 06:00:00,74.2,70.4,29.67,SE,146,0.0,1.0,88,0.00,,OVC110,0.00,VWS V14.01,2013-06-26 11:00:00,
2013-06-26 06:01:00,74.2,70.4,29.67,SE,146,0.0,1.0,88,0.00,,CLR,0.00,VWS V14.01,2013-06-26 11:01:00,
2013-06-26 06:06:00,74.2,70.4,29.67,SSE,166,0.0,1.0,88,0.00,,CLR,0.00,VWS V14.01,2013-06-26 11:06:00,
2013-06-26 06:11:00,74.1,70.3,29.67,SSE,166,0.0,1.0,88,0.00,,CLR,0.00,VWS V14.01,2013-06-26 11:11:00,
2013-06-26 06:16:00,74.1,70.7,29.68,SSE,166,0.0,1.0,89,0.00,,CLR,0.00,VWS V14.01,2013-06-26 11:16:00,
2013-06-26 06:21:00,74.1,70.7,29.68,SSE,166,0.0,1.0,89,0.00,,CLR,0.00,VWS V14.01,2013-06-26 11:21:00,
2013-06-26 06:26:00,74.1,70.7,29.67,SSE,166,0.0,1.0,89,0.00,,CLR,0.00,VWS V14.01,2013-06-26 11:26:00,
2013-06-26 06:30:00,74.1,70.7,29.67,SSE,166,0.0,1.0,89,0.00,,OVC110,0.00,VWS V14.01,2013-06-26 11:30:00,
2013-06-26 06:32:00,74.1,70.7,29.68,SSE,166,0.0,1.0,89,0.00,,CLR,0.00,VWS V14.01,2013-06-26 11:32:00,
2013-06-26 06:37:00,74.1,70.7,29.68,SSE,166,0.0,1.0,89,0.00,,CLR,0.00,VWS V14.01,2013-06-26 11:37:00,
2013-06-26 06:42:00,74.1,70.7,29.68,SSW,209,0.0,1.0,89,0.00,,CLR,0.00,VWS V14.01,2013-06-26 11:42:00,
2013-06-26 06:47:00,74.2,70.8,29.68,SSW,209,0.0,1.0,89,0.00,,CLR,0.00,VWS V14.01,2013-06-26 11:47:00,
2013-06-26 06:52:00,74.3,70.8,29.68,SSW,209,0.0,1.0,89,0.00,,CLR,0.00,VWS V14.01,2013-06-26 11:52:00,
2013-06-26 06:57:00,74.4,70.9,29.68,SSW,209,0.0,1.0,89,0.00,,CLR,0.00,VWS V14.01,2013-06-26 11:57:00,
2013-06-26 07:00:00,74.4,70.6,29.68,SSW,209,0.0,1.0,88,0.00,,OVC110,0.00,VWS V14.01,2013-06-26 12:00:00,
2013-06-26 07:02:00,74.5,70.7,29.68,SSW,205,0.0,1.0,88,0.00,,CLR,0.00,VWS V14.01,2013-06-26 12:02:00,
2013-06-26 07:07:00,74.7,70.9,29.68,SSW,205,1.0,1.0,88,0.00,,CLR,0.00,VWS V14.01,2013-06-26 12:07:00,
2013-06-26 07:12:00,74.9,71.1,29.68,SSW,204,0.0,1.0,88,0.00,,CLR,0.00,VWS V14.01,2013-06-26 12:12:00,
2013-06-26 07:18:00,75.2,71.4,29.68,SSW,204,0.0,1.0,88,0.00,,CLR,0.00,VWS V14.01,2013-06-26 12:18:00,
2013-06-26 07:23:00,75.5,71.7,29.68,SSE,159,0.0,2.0,88,0.00,,CLR,0.00,VWS V14.01,2013-06-26 12:23:00,
2013-06-26 07:28:00,75.8,71.7,29.68,SSW,193,0.0,2.0,87,0.00,,CLR,0.00,VWS V14.01,2013-06-26 12:28:00,
2013-06-26 07:30:00,75.9,71.8,29.68,SSW,192,2.0,2.0,87,0.00,,OVC110,0.00,VWS V14.01,2013-06-26 12:30:00,
2013-06-26 07:33:00,76.2,72.1,29.68,SSW,192,0.0,2.0,87,0.00,,CLR,0.00,VWS V14.01,2013-06-26 12:33:00,
2013-06-26 07:38:00,76.5,72.0,29.68,SW,236,0.0,3.0,86,0.00,,CLR,0.00,VWS V14.01,2013-06-26 12:38:00,
2013-06-26 07:43:00,76.7,71.9,29.68,South,178,0.0,3.0,85,0.00,,CLR,0.00,VWS V14.01,2013-06-26 12:43:00,
2013-06-26 07:48:00,76.9,72.1,29.68,South,172,1.0,3.0,85,0.00,,CLR,0.00,VWS V14.01,2013-06-26 12:48:00,
2013-06-26 07:53:00,77.2,72.0,29.68,SSE,167,0.0,3.0,84,0.00,,CLR,0.00,VWS V14.01,2013-06-26 12:53:00,
2013-06-26 07:58:00,77.5,72.6,29.68,SE,137,0.0,3.0,85,0.00,,CLR,0.00,VWS V14.01,2013-06-26 12:58:00,
2013-06-26 08:00:00,77.5,72.3,29.68,South,175,1.0,3.0,84,0.00,,OVC110,0.00,VWS V14.01,2013-06-26 13:00:00,
2013-06-26 08:03:00,77.8,72.6,29.68,South,175,2.0,2.0,84,0.00,,CLR,0.00,VWS V14.01,2013-06-26 13:03:00,
2013-06-26 08:08:00,78.1,72.5,29.69,South,183,0.0,4.0,83,0.00,,CLR,0.00,VWS V14.01,2013-06-26 13:08:00,
2013-06-26 08:14:00,78.4,72.8,29.69,SW,215,0.0,4.0,83,0.00,,CLR,0.00,VWS V14.01,2013-06-26 13:14:00,
2013-06-26 08:19:00,78.7,72.8,29.68,SSW,193,0.0,4.0,82,0.00,,CLR,0.00,VWS V14.01,2013-06-26 13:19:00,
2013-06-26 08:24:00,79.0,73.4,29.68,SSW,213,0.0,4.0,83,0.00,,CLR,0.00,VWS V14.01,2013-06-26 13:24:00,
2013-06-26 08:29:00,79.3,73.3,29.68,SSW,205,2.0,4.0,82,0.00,,CLR,0.00,VWS V14.01,2013-06-26 13:29:00,
2013-06-26 08:30:00,79.3,73.3,29.68,West,275,4.0,4.0,82,0.00,,OVC110,0.00,VWS V14.01,2013-06-26 13:30:00,
2013-06-26 08:34:00,79.6,73.3,29.68,SW,225,0.0,4.0,81,0.00,,CLR,0.00,VWS V14.01,2013-06-26 13:34:00,
2013-06-26 08:39:00,79.9,73.2,29.68,SSE,168,0.0,4.0,80,0.00,,CLR,0.00,VWS V14.01,2013-06-26 13:39:00,
2013-06-26 08:44:00,80.2,73.5,29.69,SSE,168,0.0,4.0,80,0.00,,CLR,0.00,VWS V14.01,2013-06-26 13:44:00,
2013-06-26 08:49:00,80.4,74.0,29.69,South,185,3.0,4.0,81,0.00,,CLR,0.00,VWS V14.01,2013-06-26 13:49:00,
2013-06-26 08:54:00,80.5,73.8,29.69,SSE,161,0.0,4.0,80,0.00,,CLR,0.00,VWS V14.01,2013-06-26 13:54:00,
2013-06-26 09:00:00,80.5,73.4,29.69,SSW,207,0.0,0.0,79,0.00,,CLR,0.00,VWS V14.01,2013-06-26 14:00:00,
2013-06-26 09:05:00,80.8,74.1,29.69,SW,217,5.0,5.0,80,0.00,,CLR,0.00,VWS V14.01,2013-06-26 14:05:00,
2013-06-26 09:10:00,81.1,74.0,29.69,West,263,0.0,5.0,79,0.00,,CLR,0.00,VWS V14.01,2013-06-26 14:10:00,
2013-06-26 09:15:00,81.5,74.4,29.69,South,183,2.0,5.0,79,0.00,,CLR,0.00,VWS V14.01,2013-06-26 14:15:00,
2013-06-26 09:20:00,81.9,74.0,29.68,South,190,0.0,8.0,77,0.00,,CLR,0.00,VWS V14.01,2013-06-26 14:20:00,
2013-06-26 09:25:00,82.3,74.8,29.68,SE,144,0.0,8.0,78,0.00,,CLR,0.00,VWS V14.01,2013-06-26 14:25:00,
2013-06-26 09:30:00,82.7,74.8,29.68,WSW,245,1.0,5.0,77,0.00,,CLR,0.00,VWS V14.01,2013-06-26 14:30:00,
2013-06-26 09:35:00,83.0,75.4,29.68,West,275,0.0,5.0,78,0.00,,CLR,0.00,VWS V14.01,2013-06-26 14:35:00,
2013-06-26 09:40:00,83.3,74.9,29.68,South,175,2.0,5.0,76,0.00,,CLR,0.00,VWS V14.01,2013-06-26 14:40:00,
2013-06-26 09:46:00,83.9,75.1,29.68,East,87,2.0,7.0,75,0.00,,CLR,0.00,VWS V14.01,2013-06-26 14:46:00,
2013-06-26 09:51:00,84.3,74.7,29.68,WNW,292,3.0,7.0,73,0.00,,CLR,0.00,VWS V14.01,2013-06-26 14:51:00,
2013-06-26 09:56:00,84.6,75.0,29.68,South,188,0.0,7.0,73,0.00,,CLR,0.00,VWS V14.01,2013-06-26 14:56:00,
2013-06-26 10:00:00,84.8,74.4,29.68,WSW,241,0.0,7.0,71,0.00,,OVC110,0.00,VWS V14.01,2013-06-26 15:00:00,
2013-06-26 10:01:00,84.8,74.4,29.68,West,263,0.0,3.0,71,0.00,,CLR,0.00,VWS V14.01,2013-06-26 15:01:00,
2013-06-26 10:06:00,85.0,74.6,29.68,SSW,202,0.0,4.0,71,0.00,,CLR,0.00,VWS V14.01,2013-06-26 15:06:00,
2013-06-26 10:11:00,85.5,75.0,29.68,SSW,200,0.0,4.0,71,0.00,,CLR,0.00,VWS V14.01,2013-06-26 15:11:00,
2013-06-26 10:16:00,85.9,74.6,29.68,SSE,166,0.0,5.0,69,0.00,,CLR,0.00,VWS V14.01,2013-06-26 15:16:00,
2013-06-26 10:21:00,86.2,75.3,29.68,SSE,157,0.0,5.0,70,0.00,,CLR,0.00,VWS V14.01,2013-06-26 15:21:00,
2013-06-26 10:26:00,86.6,74.3,29.68,South,180,0.0,5.0,67,0.00,,CLR,0.00,VWS V14.01,2013-06-26 15:26:00,
2013-06-26 10:30:00,86.7,74.9,29.68,SSE,155,0.0,5.0,68,0.00,,OVC110,0.00,VWS V14.01,2013-06-26 15:30:00,
2013-06-26 10:32:00,86.8,74.5,29.68,South,186,0.0,3.0,67,0.00,,CLR,0.00,VWS V14.01,2013-06-26 15:32:00,
2013-06-26 10:37:00,86.9,74.6,29.68,ENE,62,0.0,5.0,67,0.00,,CLR,0.00,VWS V14.01,2013-06-26 15:37:00,
2013-06-26 10:42:00,86.9,75.5,29.68,SW,223,0.0,6.0,69,0.00,,CLR,0.00,VWS V14.01,2013-06-26 15:42:00,
2013-06-26 10:47:00,87.2,75.4,29.68,SE,144,0.0,6.0,68,0.00,,CLR,0.00,VWS V14.01,2013-06-26 15:47:00,
2013-06-26 10:52:00,87.5,76.1,29.68,SW,218,0.0,6.0,69,0.00,,CLR,0.00,VWS V14.01,2013-06-26 15:52:00,
2013-06-26 10:57:00,87.8,75.5,29.68,SSE,153,0.0,6.0,67,0.00,,CLR,0.00,VWS V14.01,2013-06-26 15:57:00,
2013-06-26 11:00:00,88.0,76.1,29.68,West,271,0.0,7.0,68,0.00,,OVC110,0.00,VWS V14.01,2013-06-26 16:00:00,
2013-06-26 11:02:00,88.1,74.9,29.68,West,275,1.0,4.0,65,0.00,,CLR,0.00,VWS V14.01,2013-06-26 16:02:00,
2013-06-26 11:07:00,88.1,74.4,29.68,NE,51,0.0,7.0,64,0.00,,CLR,0.00,VWS V14.01,2013-06-26 16:07:00,
2013-06-26 11:12:00,88.3,76.0,29.68,SSW,196,0.0,7.0,67,0.00,,CLR,0.00,VWS V14.01,2013-06-26 16:12:00,
2013-06-26 11:17:00,88.5,75.2,29.68,SW,232,0.0,7.0,65,0.00,,CLR,0.00,VWS V14.01,2013-06-26 16:17:00,
2013-06-26 11:22:00,88.5,74.3,29.69,WSW,252,4.0,7.0,63,0.00,,CLR,0.00,VWS V14.01,2013-06-26 16:22:00,
2013-06-26 11:28:00,88.7,75.4,29.68,SE,138,1.0,7.0,65,0.00,,CLR,0.00,VWS V14.01,2013-06-26 16:28:00,
2013-06-26 11:30:00,88.8,75.1,29.68,South,174,0.0,7.0,64,0.00,,OVC110,0.00,VWS V14.01,2013-06-26 16:30:00,
2013-06-26 11:33:00,89.0,75.2,29.69,South,182,0.0,3.0,64,0.00,,CLR,0.00,VWS V14.01,2013-06-26 16:33:00,
2013-06-26 11:38:00,89.3,75.5,29.69,South,182,0.0,6.0,64,0.00,,CLR,0.00,VWS V14.01,2013-06-26 16:38:00,
2013-06-26 11:43:00,89.7,74.5,29.69,South,184,0.0,6.0,61,0.00,,CLR,0.00,VWS V14.01,2013-06-26 16:43:00,
2013-06-26 11:48:00,90.0,75.2,29.69,NW,317,1.0,6.0,62,0.00,,CLR,0.00,VWS V14.01,2013-06-26 16:48:00,
2013-06-26 11:53:00,90.3,76.0,29.69,SSE,164,0.0,6.0,63,0.00,,CLR,0.00,VWS V14.01,2013-06-26 16:53:00,
2013-06-26 11:58:00,90.6,75.3,29.69,SSW,207,1.0,6.0,61,0.00,,CLR,0.00,VWS V14.01,2013-06-26 16:58:00,
2013-06-26 12:00:00,90.7,74.9,29.69,WSW,243,0.0,6.0,60,0.00,,OVC110,0.00,VWS V14.01,2013-06-26 17:00:00,
2013-06-26 12:03:00,90.9,75.6,29.69,North,355,1.0,3.0,61,0.00,,CLR,0.00,VWS V14.01,2013-06-26 17:03:00,
2013-06-26 12:08:00,90.9,75.6,29.69,SSE,167,0.0,3.0,61,0.00,,CLR,0.00,VWS V14.01,2013-06-26 17:08:00,
2013-06-26 12:13:00,91.0,75.7,29.69,SSE,164,0.0,3.0,61,0.00,,CLR,0.00,VWS V14.01,2013-06-26 17:13:00,
2013-06-26 12:19:00,91.5,75.2,29.69,SW,223,0.0,4.0,59,0.00,,CLR,0.00,VWS V14.01,2013-06-26 17:19:00,
2013-06-26 12:24:00,91.8,73.9,29.69,South,170,1.0,4.0,56,0.00,,CLR,0.00,VWS V14.01,2013-06-26 17:24:00,
2013-06-26 12:29:00,91.6,74.7,29.69,WSW,240,0.0,4.0,58,0.00,,CLR,0.00,VWS V14.01,2013-06-26 17:29:00,
2013-06-26 12:30:00,91.6,75.8,29.69,South,183,0.0,4.0,60,0.00,,OVC110,0.00,VWS V14.01,2013-06-26 17:30:00,
2013-06-26 12:34:00,91.7,76.3,29.69,South,190,0.0,5.0,61,0.00,,CLR,0.00,VWS V14.01,2013-06-26 17:34:00,
2013-06-26 12:39:00,92.0,76.1,29.69,SSW,193,0.0,5.0,60,0.00,,CLR,0.00,VWS V14.01,2013-06-26 17:39:00,
2013-06-26 12:44:00,91.9,76.5,29.69,SSE,163,1.0,5.0,61,0.00,,CLR,0.00,VWS V14.01,2013-06-26 17:44:00,
2013-06-26 12:49:00,91.9,75.0,29.69,SW,217,0.0,5.0,58,0.00,,CLR,0.00,VWS V14.01,2013-06-26 17:49:00,
2013-06-26 12:54:00,91.8,76.4,29.69,SE,126,1.0,5.0,61,0.00,,CLR,0.00,VWS V14.01,2013-06-26 17:54:00,
2013-06-26 12:59:00,91.8,75.9,29.69,East,86,0.0,5.0,60,0.00,,CLR,0.00,VWS V14.01,2013-06-26 17:59:00,
2013-06-26 13:00:00,91.8,75.9,29.69,East,86,0.0,5.0,60,0.00,,OVC110,0.00,VWS V14.01,2013-06-26 18:00:00,
2013-06-26 13:05:00,92.1,75.7,29.69,South,185,1.0,3.0,59,0.00,,CLR,0.00,VWS V14.01,2013-06-26 18:05:00,
2013-06-26 13:10:00,92.1,74.7,29.69,SSW,192,0.0,5.0,57,0.00,,CLR,0.00,VWS V14.01,2013-06-26 18:10:00,
2013-06-26 13:15:00,92.0,75.6,29.69,SSE,163,1.0,5.0,59,0.00,,CLR,0.00,VWS V14.01,2013-06-26 18:15:00,
2013-06-26 13:20:00,92.0,77.1,29.68,West,281,0.0,5.0,62,0.00,,CLR,0.00,VWS V14.01,2013-06-26 18:20:00,
2013-06-26 13:25:00,92.2,75.8,29.68,South,184,4.0,5.0,59,0.00,,CLR,0.00,VWS V14.01,2013-06-26 18:25:00,
2013-06-26 13:30:00,92.6,76.7,29.68,SSW,194,2.0,2.0,60,0.00,,CLR,0.00,VWS V14.01,2013-06-26 18:30:00,
2013-06-26 13:35:00,92.5,75.6,29.68,South,182,1.0,4.0,58,0.00,,CLR,0.00,VWS V14.01,2013-06-26 18:35:00,
2013-06-26 13:40:00,92.4,74.4,29.68,SE,130,0.0,4.0,56,0.00,,CLR,0.00,VWS V14.01,2013-06-26 18:40:00,
2013-06-26 13:45:00,92.3,75.4,29.68,SSW,194,0.0,4.0,58,0.00,,CLR,0.00,VWS V14.01,2013-06-26 18:45:00,
2013-06-26 13:50:00,92.4,76.0,29.68,SSW,202,0.0,4.0,59,0.00,,CLR,0.00,VWS V14.01,2013-06-26 18:50:00,
2013-06-26 13:56:00,92.6,75.7,29.67,SW,218,0.0,4.0,58,0.00,,CLR,0.00,VWS V14.01,2013-06-26 18:56:00,
2013-06-26 14:00:00,92.6,76.2,29.67,SSE,162,2.0,4.0,59,0.00,,OVC110,0.00,VWS V14.01,2013-06-26 19:00:00,
2013-06-26 14:01:00,92.7,75.8,29.67,SSW,196,2.0,3.0,58,0.00,,CLR,0.00,VWS V14.01,2013-06-26 19:01:00,
2013-06-26 14:06:00,92.8,75.3,29.67,WNW,294,0.0,3.0,57,0.00,,CLR,0.00,VWS V14.01,2013-06-26 19:06:00,
2013-06-26 14:11:00,92.8,75.9,29.67,South,175,0.0,5.0,58,0.00,,CLR,0.00,VWS V14.01,2013-06-26 19:11:00,
2013-06-26 14:16:00,92.7,76.8,29.67,WNW,282,1.0,5.0,60,0.00,,CLR,0.00,VWS V14.01,2013-06-26 19:16:00,
2013-06-26 14:21:00,92.8,76.4,29.67,SSW,203,0.0,5.0,59,0.00,,CLR,0.00,VWS V14.01,2013-06-26 19:21:00,
2013-06-26 14:26:00,92.8,76.9,29.67,WNW,290,0.0,5.0,60,0.00,,CLR,0.00,VWS V14.01,2013-06-26 19:26:00,
2013-06-26 14:30:00,92.8,75.9,29.67,SSW,194,0.0,5.0,58,0.00,,OVC110,0.00,VWS V14.01,2013-06-26 19:30:00,
2013-06-26 14:31:00,92.8,75.9,29.67,SSE,158,0.0,3.0,58,0.00,,CLR,0.00,VWS V14.01,2013-06-26 19:31:00,
2013-06-26 14:36:00,92.6,75.7,29.66,NW,306,0.0,3.0,58,0.00,,CLR,0.00,VWS V14.01,2013-06-26 19:36:00,
2013-06-26 14:42:00,92.2,75.3,29.66,SE,138,2.0,3.0,58,0.00,,BKN049,0.00,VWS V14.01,2013-06-26 19:42:00,
2013-06-26 14:47:00,92.4,77.5,29.66,SSW,205,1.0,3.0,62,0.00,,BKN049,0.00,VWS V14.01,2013-06-26 19:47:00,
2013-06-26 14:52:00,92.8,76.9,29.66,SE,135,1.0,4.0,60,0.00,,BKN049,0.00,VWS V14.01,2013-06-26 19:52:00,
2013-06-26 14:57:00,93.0,76.1,29.66,South,173,2.0,5.0,58,0.00,,BKN049,0.00,VWS V14.01,2013-06-26 19:57:00,
2013-06-26 15:00:00,93.0,76.6,29.66,WNW,302,0.0,5.0,59,0.00,,OVC110,0.00,VWS V14.01,2013-06-26 20:00:00,
2013-06-26 15:02:00,92.9,75.9,29.65,South,180,0.0,2.0,58,0.00,,BKN049,0.00,VWS V14.01,2013-06-26 20:02:00,
2013-06-26 15:07:00,92.6,75.7,29.65,South,183,1.0,5.0,58,0.00,,BKN049,0.00,VWS V14.01,2013-06-26 20:07:00,
2013-06-26 15:12:00,92.7,75.8,29.65,SSE,162,0.0,5.0,58,0.00,,BKN049,0.00,VWS V14.01,2013-06-26 20:12:00,
2013-06-26 15:17:00,92.8,76.4,29.65,South,186,0.0,5.0,59,0.00,,BKN049,0.00,VWS V14.01,2013-06-26 20:17:00,
2013-06-26 15:22:00,92.9,76.5,29.65,SE,140,1.0,5.0,59,0.00,,BKN049,0.00,VWS V14.01,2013-06-26 20:22:00,
2013-06-26 15:27:00,92.9,75.9,29.64,SW,234,0.0,5.0,58,0.00,,BKN049,0.00,VWS V14.01,2013-06-26 20:27:00,
2013-06-26 15:30:00,92.9,76.5,29.64,South,175,3.0,5.0,59,0.00,,OVC110,0.00,VWS V14.01,2013-06-26 20:30:00,
2013-06-26 15:33:00,92.9,75.9,29.64,WSW,240,2.0,3.0,58,0.00,,BKN049,0.00,VWS V14.01,2013-06-26 20:33:00,
2013-06-26 15:38:00,92.8,75.9,29.64,SSW,192,0.0,6.0,58,0.00,,BKN049,0.00,VWS V14.01,2013-06-26 20:38:00,
2013-06-26 15:43:00,92.9,77.0,29.64,South,191,1.0,6.0,60,0.00,,FEW050,0.00,VWS V14.01,2013-06-26 20:43:00,
2013-06-26 15:48:00,92.9,76.5,29.64,SSW,205,1.0,6.0,59,0.00,,FEW050,0.00,VWS V14.01,2013-06-26 20:48:00,
2013-06-26 15:53:00,93.0,77.1,29.64,West,281,0.0,6.0,60,0.00,,FEW050,0.00,VWS V14.01,2013-06-26 20:53:00,
2013-06-26 15:58:00,92.7,76.3,29.64,WSW,240,0.0,6.0,59,0.00,,FEW050,0.00,VWS V14.01,2013-06-26 20:58:00,
2013-06-26 16:00:00,92.7,76.3,29.64,South,175,1.0,6.0,59,0.00,,OVC110,0.00,VWS V14.01,2013-06-26 21:00:00,
2013-06-26 16:03:00,92.6,77.2,29.64,WSW,249,0.0,3.0,61,0.00,,FEW050,0.00,VWS V14.01,2013-06-26 21:03:00,
2013-06-26 16:08:00,92.7,76.3,29.63,SE,128,0.0,3.0,59,0.00,,FEW050,0.00,VWS V14.01,2013-06-26 21:08:00,
2013-06-26 16:13:00,92.5,77.6,29.64,SE,144,1.0,5.0,62,0.00,,FEW050,0.00,VWS V14.01,2013-06-26 21:13:00,
2013-06-26 16:14:00,92.5,77.6,29.64,SW,235,2.0,5.0,62,0.00,,FEW050,0.00,VWS V14.01,2013-06-26 21:14:00,
2013-06-26 16:19:00,92.5,76.6,29.64,WNW,283,0.0,8.0,60,0.00,,FEW050,0.00,VWS V14.01,2013-06-26 21:19:00,
2013-06-26 16:24:00,92.6,76.2,29.63,SSW,213,0.0,8.0,59,0.00,,FEW050,0.00,VWS V14.01,2013-06-26 21:24:00,
2013-06-26 16:29:00,92.6,77.2,29.63,SSE,166,0.0,8.0,61,0.00,,FEW050,0.00,VWS V14.01,2013-06-26 21:29:00,
2013-06-26 16:30:00,92.6,77.2,29.63,SSE,166,0.0,8.0,61,0.00,,OVC110,0.00,VWS V14.01,2013-06-26 21:30:00,
2013-06-26 16:34:00,92.7,77.3,29.64,SSW,213,1.0,4.0,61,0.00,,FEW050,0.00,VWS V14.01,2013-06-26 21:34:00,
2013-06-26 16:40:00,92.6,77.2,29.63,SSW,194,0.0,5.0,61,0.00,,FEW050,0.00,VWS V14.01,2013-06-26 21:40:00,
2013-06-26 16:45:00,92.6,77.7,29.63,East,101,2.0,5.0,62,0.00,,CLR,0.00,VWS V14.01,2013-06-26 21:45:00,
2013-06-26 16:50:00,92.4,76.5,29.63,WSW,254,1.0,5.0,60,0.00,,CLR,0.00,VWS V14.01,2013-06-26 21:50:00,
2013-06-26 16:55:00,92.3,76.9,29.63,NW,321,0.0,5.0,61,0.00,,CLR,0.00,VWS V14.01,2013-06-26 21:55:00,
2013-06-26 17:00:00,92.4,76.5,29.63,SE,142,1.0,1.0,60,0.00,,CLR,0.00,VWS V14.01,2013-06-26 22:00:00,
2013-06-26 17:05:00,92.4,76.0,29.63,SSW,202,0.0,5.0,59,0.00,,CLR,0.00,VWS V14.01,2013-06-26 22:05:00,
2013-06-26 17:10:00,92.4,76.5,29.63,West,276,0.0,5.0,60,0.00,,CLR,0.00,VWS V14.01,2013-06-26 22:10:00,
2013-06-26 17:15:00,92.3,76.4,29.63,WSW,246,0.0,5.0,60,0.00,,CLR,0.00,VWS V14.01,2013-06-26 22:15:00,
2013-06-26 17:20:00,92.2,76.3,29.63,NW,314,0.0,5.0,60,0.00,,CLR,0.00,VWS V14.01,2013-06-26 22:20:00,
2013-06-26 17:26:00,92.1,76.7,29.63,South,172,0.0,5.0,61,0.00,,CLR,0.00,VWS V14.01,2013-06-26 22:26:00,
2013-06-26 17:30:00,92.0,76.6,29.62,SSE,157,0.0,5.0,61,0.00,,OVC110,0.00,VWS V14.01,2013-06-26 22:30:00,
2013-06-26 17:31:00,92.0,76.6,29.62,WSW,255,1.0,1.0,61,0.00,,CLR,0.00,VWS V14.01,2013-06-26 22:31:00,
2013-06-26 17:36:00,91.9,76.5,29.62,SSE,161,2.0,2.0,61,0.00,,CLR,0.00,VWS V14.01,2013-06-26 22:36:00,
2013-06-26 17:41:00,91.9,76.5,29.63,NE,35,3.0,3.0,61,0.00,,CLR,0.00,VWS V14.01,2013-06-26 22:41:00,
2013-06-26 17:46:00,91.9,76.5,29.63,SW,217,0.0,3.0,61,0.00,,CLR,0.00,VWS V14.01,2013-06-26 22:46:00,
2013-06-26 17:51:00,91.8,76.4,29.62,South,179,0.0,4.0,61,0.00,,CLR,0.00,VWS V14.01,2013-06-26 22:51:00,
2013-06-26 17:56:00,91.7,76.3,29.62,NW,305,0.0,4.0,61,0.00,,CLR,0.00,VWS V14.01,2013-06-26 22:56:00,
2013-06-26 18:00:00,91.6,75.8,29.62,WSW,237,0.0,4.0,60,0.00,,OVC110,0.00,VWS V14.01,2013-06-26 23:00:00,
2013-06-26 18:01:00,91.6,76.2,29.62,WNW,282,0.0,2.0,61,0.00,,CLR,0.00,VWS V14.01,2013-06-26 23:01:00,
2013-06-26 18:06:00,91.5,75.7,29.62,South,190,0.0,2.0,60,0.00,,CLR,0.00,VWS V14.01,2013-06-26 23:06:00,
2013-06-26 18:12:00,91.4,76.1,29.63,SSW,213,0.0,5.0,61,0.00,,CLR,0.00,VWS V14.01,2013-06-26 23:12:00,
2013-06-26 18:17:00,91.3,76.5,29.63,West,263,0.0,5.0,62,0.00,,CLR,0.00,VWS V14.01,2013-06-26 23:17:00,
2013-06-26 18:22:00,91.2,76.4,29.63,SE,138,0.0,5.0,62,0.00,,CLR,0.00,VWS V14.01,2013-06-26 23:22:00,
2013-06-26 18:27:00,91.1,76.3,29.63,South,178,0.0,5.0,62,0.00,,CLR,0.00,VWS V14.01,2013-06-26 23:27:00,
2013-06-26 18:30:00,91.0,75.7,29.63,South,173,0.0,5.0,61,0.00,,OVC110,0.00,VWS V14.01,2013-06-26 23:30:00,
2013-06-26 18:32:00,91.0,76.7,29.63,South,173,0.0,0.0,63,0.00,,CLR,0.00,VWS V14.01,2013-06-26 23:32:00,
2013-06-26 18:37:00,90.9,76.6,29.63,SW,233,0.0,3.0,63,0.00,,CLR,0.00,VWS V14.01,2013-06-26 23:37:00,
2013-06-26 18:42:00,90.6,76.8,29.63,West,260,0.0,3.0,64,0.00,,CLR,0.00,VWS V14.01,2013-06-26 23:42:00,
2013-06-26 18:48:00,90.4,76.6,29.63,SW,225,1.0,3.0,64,0.00,,CLR,0.00,VWS V14.01,2013-06-26 23:48:00,
2013-06-26 18:53:00,90.3,76.5,29.63,WNW,292,1.0,3.0,64,0.00,,CLR,0.00,VWS V14.01,2013-06-26 23:53:00,
2013-06-26 18:58:00,90.1,76.8,29.63,SSE,160,0.0,3.0,65,0.00,,CLR,0.00,VWS V14.01,2013-06-26 23:58:00,
2013-06-26 19:00:00,90.1,76.3,29.64,SSE,160,0.0,3.0,64,0.00,,OVC110,0.00,VWS V14.01,2013-06-27 00:00:00,
2013-06-26 19:03:00,89.9,76.1,29.64,SSE,163,0.0,0.0,64,0.00,,CLR,0.00,VWS V14.01,2013-06-27 00:03:00,
2013-06-26 19:08:00,89.8,76.5,29.64,SSE,163,0.0,0.0,65,0.00,,CLR,0.00,VWS V14.01,2013-06-27 00:08:00,
2013-06-26 19:13:00,89.5,77.1,29.64,SW,221,0.0,1.0,67,0.00,,CLR,0.00,VWS V14.01,2013-06-27 00:13:00,
2013-06-26 19:18:00,89.3,76.9,29.64,SW,234,0.0,1.0,67,0.00,,CLR,0.00,VWS V14.01,2013-06-27 00:18:00,
2013-06-26 19:23:00,89.0,76.2,29.64,South,169,0.0,2.0,66,0.00,,CLR,0.00,VWS V14.01,2013-06-27 00:23:00,
2013-06-26 19:28:00,88.7,76.3,29.64,South,169,0.0,2.0,67,0.00,,CLR,0.00,VWS V14.01,2013-06-27 00:28:00,
2013-06-26 19:30:00,88.7,76.3,29.64,South,169,0.0,2.0,67,0.00,,OVC110,0.00,VWS V14.01,2013-06-27 00:30:00,
2013-06-26 19:33:00,88.4,76.5,29.64,South,169,0.0,0.0,68,0.00,,CLR,0.00,VWS V14.01,2013-06-27 00:33:00,
2013-06-26 19:39:00,88.1,76.2,29.64,South,169,0.0,0.0,68,0.00,,CLR,0.00,VWS V14.01,2013-06-27 00:39:00,
2013-06-26 19:44:00,87.8,76.4,29.64,SW,223,0.0,0.0,69,0.00,,CLR,0.00,VWS V14.01,2013-06-27 00:44:00,
2013-06-26 19:49:00,87.6,76.2,29.65,SSW,202,0.0,1.0,69,0.00,,CLR,0.00,VWS V14.01,2013-06-27 00:49:00,
2013-06-26 19:54:00,87.4,76.4,29.64,SW,217,0.0,1.0,70,0.00,,CLR,0.00,VWS V14.01,2013-06-27 00:54:00,
2013-06-26 19:59:00,87.2,76.2,29.65,SW,221,0.0,1.0,70,0.00,,CLR,0.00,VWS V14.01,2013-06-27 00:59:00,
2013-06-26 20:00:00,87.2,76.2,29.65,SW,221,0.0,1.0,70,0.00,,OVC110,0.00,VWS V14.01,2013-06-27 01:00:00,
2013-06-26 20:04:00,87.0,76.0,29.64,West,273,0.0,0.0,70,0.00,,CLR,0.00,VWS V14.01,2013-06-27 01:04:00,
2013-06-26 20:09:00,86.8,76.3,29.65,WSW,257,0.0,3.0,71,0.00,,CLR,0.00,VWS V14.01,2013-06-27 01:09:00,
2013-06-26 20:14:00,86.6,76.5,29.64,WSW,257,0.0,3.0,72,0.00,,CLR,0.00,VWS V14.01,2013-06-27 01:14:00,
2013-06-26 20:19:00,86.4,75.9,29.64,SSW,209,0.0,3.0,71,0.00,,CLR,0.00,VWS V14.01,2013-06-27 01:19:00,
2013-06-26 20:24:00,86.3,76.2,29.64,SSW,201,0.0,3.0,72,0.00,,CLR,0.00,VWS V14.01,2013-06-27 01:24:00,
2013-06-26 20:30:00,86.2,75.7,29.65,West,271,0.0,0.0,71,0.00,,CLR,0.00,VWS V14.01,2013-06-27 01:30:00,
2013-06-26 20:35:00,86.0,75.9,29.65,WNW,289,0.0,1.0,72,0.00,,CLR,0.00,VWS V14.01,2013-06-27 01:35:00,
2013-06-26 20:40:00,85.8,75.7,29.65,WNW,289,0.0,1.0,72,0.00,,CLR,0.00,VWS V14.01,2013-06-27 01:40:00,
2013-06-26 20:41:00,85.8,75.7,29.65,WNW,289,0.0,1.0,72,0.00,,CLR,0.00,VWS V14.01,2013-06-27 01:41:00,
2013-06-26 20:46:00,85.6,75.5,29.65,West,265,1.0,1.0,72,0.00,,CLR,0.00,VWS V14.01,2013-06-27 01:46:00,
2013-06-26 20:51:00,85.4,75.8,29.65,NW,318,1.0,1.0,73,0.00,,CLR,0.00,VWS V14.01,2013-06-27 01:51:00,
2013-06-26 20:56:00,85.3,75.7,29.65,ENE,78,0.0,1.0,73,0.00,,CLR,0.00,VWS V14.01,2013-06-27 01:56:00,
2013-06-26 21:00:00,85.3,75.7,29.65,WNW,295,0.0,1.0,73,0.00,,OVC110,0.00,VWS V14.01,2013-06-27 02:00:00,
2013-06-26 21:01:00,85.3,75.7,29.65,SSW,213,0.0,1.0,73,0.00,,CLR,0.00,VWS V14.01,2013-06-27 02:01:00,
2013-06-26 21:06:00,85.2,75.6,29.65,South,172,0.0,1.0,73,0.00,,CLR,0.00,VWS V14.01,2013-06-27 02:06:00,
2013-06-26 21:11:00,85.1,75.9,29.65,WSW,248,1.0,1.0,74,0.00,,CLR,0.00,VWS V14.01,2013-06-27 02:11:00,
2013-06-26 21:16:00,85.0,75.4,29.65,SE,138,0.0,1.0,73,0.00,,CLR,0.00,VWS V14.01,2013-06-27 02:16:00,
2013-06-26 21:21:00,84.9,75.7,29.65,North,355,0.0,1.0,74,0.00,,CLR,0.00,VWS V14.01,2013-06-27 02:21:00,
2013-06-26 21:27:00,84.8,75.6,29.65,South,190,0.0,1.0,74,0.00,,CLR,0.00,VWS V14.01,2013-06-27 02:27:00,
2013-06-26 21:30:00,84.7,75.5,29.65,WSW,238,0.0,1.0,74,0.00,,OVC110,0.00,VWS V14.01,2013-06-27 02:30:00,
2013-06-26 21:32:00,84.7,75.5,29.66,ESE,115,0.0,0.0,74,0.00,,CLR,0.00,VWS V14.01,2013-06-27 02:32:00,
2013-06-26 21:37:00,84.6,75.4,29.66,WSW,246,0.0,2.0,74,0.00,,CLR,0.00,VWS V14.01,2013-06-27 02:37:00,
2013-06-26 21:42:00,84.5,75.3,29.66,WSW,252,0.0,2.0,74,0.00,,CLR,0.00,VWS V14.01,2013-06-27 02:42:00,
2013-06-26 21:47:00,84.4,75.6,29.66,WSW,252,0.0,2.0,75,0.00,,CLR,0.00,VWS V14.01,2013-06-27 02:47:00,
2013-06-26 21:52:00,84.1,75.3,29.67,NNW,335,0.0,2.0,75,0.00,,CLR,0.00,VWS V14.01,2013-06-27 02:52:00,
2013-06-26 21:57:00,83.9,75.1,29.67,West,265,0.0,2.0,75,0.00,,CLR,0.00,VWS V14.01,2013-06-27 02:57:00,
2013-06-26 22:00:00,83.9,75.5,29.67,West,265,0.0,2.0,76,0.00,,OVC110,0.00,VWS V14.01,2013-06-27 03:00:00,
2013-06-26 22:02:00,83.8,75.4,29.67,NW,309,0.0,1.0,76,0.00,,CLR,0.00,VWS V14.01,2013-06-27 03:02:00,
2013-06-26 22:08:00,83.6,75.2,29.67,SSW,202,0.0,1.0,76,0.00,,CLR,0.00,VWS V14.01,2013-06-27 03:08:00,
2013-06-26 22:13:00,83.4,75.1,29.67,SSW,211,0.0,2.0,76,0.00,,CLR,0.00,VWS V14.01,2013-06-27 03:13:00,
2013-06-26 22:18:00,83.3,75.3,29.67,WNW,286,3.0,3.0,77,0.00,,CLR,0.00,VWS V14.01,2013-06-27 03:18:00,
2013-06-26 22:23:00,83.1,75.2,29.67,SE,126,0.0,3.0,77,0.00,,CLR,0.00,VWS V14.01,2013-06-27 03:23:00,
2013-06-26 22:28:00,83.0,75.1,29.67,ENE,73,0.0,3.0,77,0.00,,CLR,0.00,VWS V14.01,2013-06-27 03:28:00,
2013-06-26 22:30:00,83.0,75.1,29.67,West,261,0.0,3.0,77,0.00,,OVC110,0.00,VWS V14.01,2013-06-27 03:30:00,
2013-06-26 22:33:00,82.9,74.9,29.68,SW,232,0.0,2.0,77,0.00,,CLR,0.00,VWS V14.01,2013-06-27 03:33:00,
2013-06-26 22:38:00,82.9,74.9,29.68,NW,321,0.0,2.0,77,0.00,,CLR,0.00,VWS V14.01,2013-06-27 03:38:00,
2013-06-26 22:44:00,82.8,74.9,29.68,NNW,328,0.0,2.0,77,0.00,,CLR,0.00,VWS V14.01,2013-06-27 03:44:00,
2013-06-26 22:49:00,82.7,75.2,29.68,NW,325,0.0,2.0,78,0.00,,CLR,0.00,VWS V14.01,2013-06-27 03:49:00,
2013-06-26 22:54:00,82.6,75.1,29.68,SSW,202,0.0,2.0,78,0.00,,CLR,0.00,VWS V14.01,2013-06-27 03:54:00,
2013-06-26 22:59:00,82.5,74.9,29.68,WSW,245,0.0,2.0,78,0.00,,CLR,0.00,VWS V14.01,2013-06-27 03:59:00,
2013-06-26 23:00:00,82.5,74.9,29.68,WSW,245,0.0,2.0,78,0.00,,OVC110,0.00,VWS V14.01,2013-06-27 04:00:00,
2013-06-26 23:01:00,82.5,74.9,29.68,West,273,0.0,1.0,78,0.00,,CLR,0.00,VWS V14.01,2013-06-27 04:01:00,
2013-06-26 23:02:00,82.5,74.9,29.68,WSW,253,0.0,1.0,78,0.00,,CLR,0.00,VWS V14.01,2013-06-27 04:02:00,
2013-06-26 23:03:00,82.4,74.9,29.68,WSW,253,0.0,1.0,78,0.00,,CLR,0.00,VWS V14.01,2013-06-27 04:03:00,
2013-06-26 23:08:00,82.4,74.9,29.68,West,275,0.0,3.0,78,0.00,,CLR,0.00,VWS V14.01,2013-06-27 04:08:00,
2013-06-26 23:13:00,82.3,75.1,29.68,West,278,0.0,3.0,79,0.00,,CLR,0.00,VWS V14.01,2013-06-27 04:13:00,
2013-06-26 23:18:00,82.2,74.7,29.68,SE,132,0.0,3.0,78,0.00,,CLR,0.00,VWS V14.01,2013-06-27 04:18:00,
2013-06-26 23:24:00,82.1,74.6,29.68,SSW,198,0.0,3.0,78,0.00,,CLR,0.00,VWS V14.01,2013-06-27 04:24:00,
2013-06-26 23:29:00,82.1,74.9,29.68,WSW,257,0.0,3.0,79,0.00,,CLR,0.00,VWS V14.01,2013-06-27 04:29:00,
2013-06-26 23:30:00,82.1,74.6,29.68,WSW,257,0.0,3.0,78,0.00,,OVC110,0.00,VWS V14.01,2013-06-27 04:30:00,
2013-06-26 23:34:00,82.0,74.8,29.68,West,268,0.0,0.0,79,0.00,,CLR,0.00,VWS V14.01,2013-06-27 04:34:00,
2013-06-26 23:39:00,81.9,74.8,29.68,West,260,0.0,0.0,79,0.00,,CLR,0.00,VWS V14.01,2013-06-27 04:39:00,
2013-06-26 23:44:00,81.8,74.7,29.68,WSW,242,0.0,1.0,79,0.00,,CLR,0.00,VWS V14.01,2013-06-27 04:44:00,
2013-06-26 23:49:00,81.7,74.6,29.68,NW,315,0.0,1.0,79,0.00,,CLR,0.00,VWS V14.01,2013-06-27 04:49:00,
2013-06-26 23:54:00,81.6,74.8,29.68,NE,53,0.0,1.0,80,0.00,,CLR,0.00,VWS V14.01,2013-06-27 04:54:00,
2013-06-26 23:59:00,81.5,74.7,29.68,ESE,105,0.0,1.0,80,0.00,,CLR,0.00,VWS V14.01,2013-06-27 04:59:00,